Regional Weather Roundup
Issued by NWS

Home | Current Version | Previous Version | Graphics & Text | Print | Product List | Glossary On
Versions: 1 2 3 4 5 6 7 8 9 10 11 12 13 14 15 16 17 18 19 20 21 22 23 24 25 26 27 28 29 30 31 32 33 34 35 36 37 38 39 40 41 42 43 44 45 46 47 48 49 50
000
ASUS45 KBOU 261507
RWRCO

WEATHER ROUNDUP FOR COLORADO
NATIONAL WEATHER SERVICE DENVER/BOULDER CO
800 AM MST THU FEB 26 2015

NOTE: "FAIR" INDICATES FEW OR NO CLOUDS BELOW 12000 FEET WITH NO
SIGNIFICANT WEATHER AND/OR OBSTRUCTIONS TO VISIBILITY.

COZ001>005-013-030-031-261600-
...NORTHWEST COLORADO...

CITY           SKY/WX    TMP DP  RH WIND       PRES   REMARKS
CRAIG          CLOUDY    14   9  80 CALM      30.05R
HAYDEN         PTSUNNY   14  10  85 SE6       30.01S WCI   5
MEEKER         CLOUDY    17   9  70 E5        30.02S WCI  10
MOUNT WERNER   NOT AVBL
STEAMBOAT SPGS CLOUDY    12   8  82 CALM      30.01R
WALDEN         CLOUDY    10   5  79 CALM      29.96R
$$

COZ006>008-011-261600-
...WEST CENTRAL VALLEYS...

CITY           SKY/WX    TMP DP  RH WIND       PRES   REMARKS
GRAND JUNCTION MOSUNNY   27  19  72 SE5       30.04R WCI  22
MONTROSE       SUNNY     14  10  84 SE8       30.06R WCI   3
EAGLE          MOSUNNY   16  14  93 CALM      30.07R
RIFLE          MOSUNNY   21  14  74 NE6       30.06S WCI  13
DELTA          SUNNY     26  18  74 CALM      30.07R
NUCLA          SUNNY     21  14  73 E12       30.06S WCI   9
$$

COZ017>023-064>068-261600-
...SOUTHWEST COLORADO...

CITY           SKY/WX    TMP DP  RH WIND       PRES   REMARKS
DURANGO        PTSUNNY   15  14  95 NW3       30.00R
CORTEZ         SUNNY     22  16  78 NE7       30.01S WCI  13
PAGOSA SPRINGS PTSUNNY   15  14  96 CALM      29.99R
TELLURIDE      MOSUNNY   13   8  81 SE6       29.99R WCI   4
WOLF CREEK PAS PTSUNNY    9  -8  47 W9        29.95R WCI  -5
$$

COZ009-010-012-014-032>034-037-058>063-261600-
...CENTRAL COLORADO...

CITY           SKY/WX    TMP DP  RH WIND       PRES   REMARKS
ASPEN          MOSUNNY   11   2  67 SW7       29.98R WCI   0
BUENA VISTA    LGT SNOW   9   7  89 CALM      30.00R
COPPER MTN     MOSUNNY    5  -4  66 W21G29    29.84R WCI -16
BERTHOUD PASS  CLOUDY    -4  -9  77 NW20      29.80R HAZE    WCI -27
COTTONWOOD PAS SNOW      12   9  85 CALM      29.92R VSB 1/2
GUNNISON       MOSUNNY    5   5 100 CALM      30.03R
KREMMLING      LGT SNOW   5   0  78 CALM      30.02S
LEADVILLE      MOSUNNY    5  -1  76 NE6       29.90S WCI  -6
MONARCH PASS   MOSUNNY    3  -2  78 MISG      29.94R
SALIDA         CLOUDY    18  11  77 E8        30.10R WCI   7
SUNLIGHT       SUNNY    N/A N/A N/A CALM        N/A
WILKERSON PASS LGT SNOW N/A N/A N/A SW7       29.88R
$$

COZ069>075-261600-
...SAN LUIS VALLEY/SANGRE DE CRISTO MOUNTAINS...

CITY           SKY/WX    TMP DP  RH WIND       PRES   REMARKS
ALAMOSA        MOSUNNY   13   9  84 CALM      29.99R
LA VETA PASS   LGT SNOW  12  10  92 MISG      29.91F VSB 1
SAGUACHE       MOSUNNY   18  14  86 NW6       30.00R WCI   9
$$

COZ035-036-038>040-261600-
...NORTHERN COLORADO FRONT RANGE...

CITY           SKY/WX    TMP DP  RH WIND       PRES   REMARKS
DENVER INTL AP FLURRIES   9   6  88 SE7       30.16R WCI  -2
DMNS CITY PARK   N/A     12  10  91 SE1G9     30.18R
AURORA         PTSUNNY    7   4  90 SE10      30.15R WCI  -8
FRONT RANGE AP NOT AVBL
ERIE MUNI ARPT FLURRIES  14  10  83 S7        30.18S WCI   4
BOULDER MUN AP LGT SNOW  14  12  92 SE5       30.17R WCI   6
CENTENNIAL     LGT SNOW   8   6  92 SE8       30.13S FOG     WCI  -4
BROOMFIELD     FLURRIES  12   9  85 SE6       30.15S WCI   3
FORT COLLINS   CLOUDY    14   9  79 SE8       30.20R WCI   3
LONGMONT       LGT SNOW  17  12  78 SE3       30.21R
$$

COZ041-046-047-076>085-087-088-261600-
...PIKES PEAK/PALMER DIVIDE AND SOUTHERN FOOTHILLS...

CITY           SKY/WX    TMP DP  RH WIND       PRES   REMARKS
COLO. SPRINGS  LGT SNOW  14  11  87 S8        30.12R FOG     WCI   3
A. F. ACADEMY  LGT SNOW  12   7  79 S2        30.08R FOG
ELLICOTT       NOT AVBL
FALCON         LGT SNOW  11   8  85 S3        30.08R
FORT CARSON    NOT AVBL
LIMON          FLURRIES  12   9  87 NE9       30.17R WCI   0
MONUMENT HILL  SNOW       9   5  85 SE3       30.05R VSB 1/2
TRINIDAD       CLOUDY    16  12  84 NE10      30.14S WCI   4
$$

COZ042>045-048>051-090-091-261600-
...NORTHEAST COLORADO...

CITY           SKY/WX    TMP DP  RH WIND       PRES   REMARKS
GREELEY ARPT   CLOUDY    16   3  57 E6        30.20S WCI   7
AKRON          CLOUDY    10   6  84 E7        30.22R WCI  -1
BURLINGTON     CLOUDY    14   8  77 NE12      30.26R WCI   0
WRAY           CLOUDY    14   7  74 NE9       30.32R WCI   1
STERLING       CLOUDY    14   7  73 E5        30.27R WCI   6
HOLYOKE        NOT AVBL
FORT MORGAN    FLURRIES  12   8  84 E8        30.24R WCI   1
$$

COZ086-089-092>099-261600-
...SOUTHEAST COLORADO...

CITY           SKY/WX    TMP DP  RH WIND       PRES   REMARKS
PUEBLO         CLOUDY    15  12  88 SE10      30.21S WCI   2
LA JUNTA       LGT SNOW  17  13  84 SE14      30.26R VSB 3/4 WCI   3
LAMAR          CLOUDY    17  11  77 E8        30.28R HAZE    WCI   7
SPRINGFIELD      N/A     15  12  88 NE10      30.25R WCI   2
$$


USA.gov is the U.S. government's official web portal to all federal, state and local government web resources and services.